STARLINK-1043, 44748

Orbit data source: Space-Track

STARLINK-1043, 44748 is a payload satellite owned by SpaceX/Seattle (US) in LEO that was launched on Mon, 11 Nov 2019 UTC via an FALCON 9 launch vehicle from the Air Force Eastern Test Range (AFETR). Payload-class satellites include a variety of spacecraft equipped with specific instruments for various scientific and technological missions. These include communications satellites like Starlink; space stations such as the ISS; scientific satellites like the Hubble; Earth observation satellites from companies like Planet Labs, Umbra, and HawkEye 360; GPS; miniature CubeSats for education and research; and military/defense satellites.

Loading next visibility...
Identifier
44748, 2019-074AM
Orbit
LEO
Country
Flag of USUS
Related business
Manufacturer
SpaceX/Seattle
Mission
Operational Commercial Communications
Bus & Motor
STARLINK, Unknown motor
Mass
260 kg wet, ~248 kg dry
Launch date (UTC)
2019-11-11 (6 years ago)
Launch vehicle
FALCON 9
Launch site
Air Force Eastern Test Range (AFETR)
Object type
Payload
Rocket body
Debris
Shape & HBR
Box + 1 Pan, 10.1 m
Radar Cross Section
13.562 m², Large (>1 m²)

Expand to show TLE details & history
Last TLE update: 12 hours ago

TLE from 12 hours ago
0 STARLINK-1043
1 44748U 19074AM  25310.01588327  .00000812  00000-0  73395-4 0  9995
2 44748  53.0551  61.8106 0001192  86.1786 273.9339 15.06398399329552
Epoch: 2025-11-06T00:22Z
TLE epoch observation values (Epoch: 2025-11-06T00:22:52.314Z)
Latitude
-0.00005°
Longitude
10.61233°
Altitude
548.039 km
Speed
7.589 km/s
True Right ascension
04h 07m 14s
True Declination
0° 00' 00"
Sunlit
Object was in full shadow at epoch
Visualization orbit readout
Latitude
Unknown
Longitude
Unknown
Altitude
Unknown
Speed
Unknown
Apparent Right ascension
Unknown
Apparent Declination
Unknown
Sunlit
N/A
Visualization observer readout
Local Sidereal Time
08:01:26
Azimuth
Unknown
Elevation
Unknown
Doppler factor
Unknown
Orbital elements
Apogee altitude
548.313 km
Perigee altitude
546.662 km
Semi-major axis
6,925.624 km
Eccentricity
0.00012
Inclination
53.0551°
RAAN
61.8106°
Arg. of periapsis
86.1786°
True anomaly
273.92027°
Mean anomaly
273.9339°
Eccentric anomaly
273.92709°
Mean motion
3.76578 °/min
Orbital period
95.6 mins
BSTAR
0.000073395
Loading maneuver chart data...
Computing Atmospheric mass density...

Documentation

Showing up to 5 results
|